ONEWEB-0718, 56081

Orbit data source: Space-Track

ONEWEB-0718, 56081 is a payload satellite owned by One Web (NAA) (UK) in LEO that was launched on Sun, 26 Mar 2023 UTC via a LVM3 launch vehicle from the Sirharikota (SRI). Payload-class satellites include a variety of spacecraft equipped with specific instruments for various scientific and technological missions. These include communications satellites like Starlink; space stations such as the ISS; scientific satellites like the Hubble; Earth observation satellites from companies like Planet Labs, Umbra, and HawkEye 360; GPS; miniature CubeSats for education and research; and military/defense satellites.

Loading next visibility...
Identifier
56081, 2023-043AM
Orbit
LEO
Country
Flag of UKUK
Related business
Manufacturer
One Web
Mission
Operational Commercial Communications
Bus & Motor
ARROW, Unknown motor
Mass
148 kg wet, ~140 kg dry
Launch date (UTC)
2023-03-26 (2 years ago)
Launch vehicle
LVM3
Launch site
Sirharikota (SRI)
Object type
Payload
Rocket body
Debris
Shape & HBR
Trap Box + 2 Pan, 2.5 m
Radar Cross Section
2.032 m², Large (>1 m²)

Expand to show TLE details & history
Last TLE update: 13 hours ago

TLE from 13 hours ago
0 ONEWEB-0718
1 56081U 23043AM  25250.25842765  .00000133  00000-0  31978-3 0  9993
2 56081  87.9048 315.6613 0002002 115.1073 245.0266 13.15550059119230
Epoch: 2025-09-07T06:12Z
TLE epoch observation values (Epoch: 2025-09-07T06:12:08.148Z)
Latitude
0.00003°
Longitude
-123.95313°
Altitude
1,205.301 km
Speed
7.251 km/s
True Right ascension
21h 02m 38s
True Declination
0° 00' 00"
Sunlit
Object was in full shadow at epoch
Visualization orbit readout
Latitude
Unknown
Longitude
Unknown
Altitude
Unknown
Speed
Unknown
Apparent Right ascension
Unknown
Apparent Declination
Unknown
Sunlit
N/A
Visualization observer readout
Local Sidereal Time
11:48:11
Azimuth
Unknown
Elevation
Unknown
Doppler factor
Unknown
Orbital elements
Apogee altitude
1,200.394 km
Perigee altitude
1,197.36 km
Semi-major axis
7,577.014 km
Eccentricity
0.0002
Inclination
87.9048°
RAAN
315.6613°
Arg. of periapsis
115.1073°
True anomaly
245.00581°
Mean anomaly
245.0266°
Eccentric anomaly
245.0162°
Mean motion
3.29076 °/min
Orbital period
109.4 mins
BSTAR
0.00031978
Loading maneuver chart data...
Computing Atmospheric mass density...
Loading historical data...
Loading historical data...
Loading historical data...
Loading historical data...
Loading historical data...
Loading historical data...
Loading historical data...

Documentation

Showing up to 5 results
|